Location: Cardiff
(53.7833°N, 113.6000°W)
Time: 22:25:20
(UTC+00:00)

Oscar 19 - Pass Details

Date: 04 December 2023
Orbit: 771 x 789 km, 98.9° (Epoch: 04 March)

Event Time Altitude Azimuth Distance (km) Brightness Sun altitude
Rises 00:28:07 0° 205° (SSW) 3,236 14.7 -9.9°
Reaches altitude 10° 00:30:58 10° 221° (SW) 2,314 14.2 -10.3°
Maximum altitude 00:34:47 21° 270° (W) 1,684 13.3 -10.8°
Drops below altitude 10° 00:38:38 10° 319° (NW) 2,330 13.4 -11.3°
Sets 00:41:32 0° 335° (NNW) 3,265 13.9 -11.7°
